"Pseudo-MPEC" for P21C6jf

Created 2022 Nov 30 20:22:25 UT using Find_Orb

Click here for an explanation of pseudo-MPECs

 
 Astrometry: 
     P21C6jf* C2022 11 24-len0+;cuO6^O1HQt87QjnQ74h^X$a1eSvZ='OW$;T'=_!Uv,yD7F52
     P21C6jf  C2022 11 247Y%O7)6oCR):4X@k76`E=$*r3Z$3%;$8t-)Ww`tlc4v.K3D2X;j3F52
     P21C6jf  C2022 11 24#vkjU`HGZUQkRkr][:dWiDF!VakrNII?9X%Astrometry9qW+$HWF52
     P21C6jf  C2022 11 24*_8yIJ!9Hn%c:Q8=T1037L9PDJ5Ll,1__5c;(1=vjjBr-v*cuj%hF52
     P21C6jf  S2022 11 25L;jR-wdF6y/Q'AnW1redacted;OH-G/^+MGr$,`*GQ].(!/p[9lKC51
     P21C6jf  s2022 11 25mn2o$p+r[WvgZho=vwr+oL$?-=^TB+UZ%UfQ6CMW;bE0%uaR[1$_C51
     P21C6jf  S2022 11 26P2Vh@ytB.N#g]C?M@F*\.OFhKb@,sDEI0!lPfMbnPPRMI%mo0)X9C51
     P21C6jf  s2022 11 26PFd8@JeohOqZYK`4ojG=g16jnn*DnH64s!-hD\9$oeYVyNFqOd8UC51
     P21C6jf  S2022 11 26ONFCw*BkRXZK4gnX#-6rroNKwuBL9Z\hc(e`f-+fejT,^f/EV(L0C51
     P21C6jf  s2022 11 26C#+fPD2f=nR#Z_/x%NBY[ZEDVx\7A_va5A!aYIm7)S\2N$Fc9EbsC51
     P21C6jf  S2022 11 26!hq]%8CT2wph^O7click,@A_@WKI5q2N=NG=rVBeyD?euiS4k@_fC51
     P21C6jf  s2022 11 26YYC*(XVoasCbk`[G)F'?fW.sk1?*jy'N':*P!#tcIZxp=xKy=kV%C51
     P21C6jf $C2022 11 26d!,)2KheregV$I*`ci6F0[oE4@2k;*6K/;]lA%HEN-+kPvcv,Dl+J04
     P21C6jf $C2022 11 26XfHE1=OGi8GI._OdNlK4]!0FRpDDWdJug+B0wC4+(P4ln=^tQuu;J04
     P21C6jf $C2022 11 26uMe@KAw5ES0g8,w5P1uX;/%0L=*W9YL4a8T2Y+%8fl*sCtI/o[J$J04
     P21C6jf KC2022 11 26.51112 09 36 17.20 -19 01 29.3    ~BQD7 20.5 RoNEOCP691
     P21C6jf KC2022 11 26.51594 09 36 17.54 -19 01 35.9    ~BQD7 20.6 RoNEOCP691
     P21C6jf KC2022 11 26.52077 09 36 17.97 -19 01 42.4    ~BQD7 20.8 RoNEOCP691
     P21C6jf  S2022 11 26`4+$rbqR5+9':%:y[?lHePucJxLsYPRte]x]EIi4T\;HbVHCOnEoC51
     P21C6jf  s2022 11 26D@2I^BRhtLSW$kWM4E[q;*3q,VVIDforv[GosjGbsoPQ`-$O,_FGC51
     P21C6jf  S2022 11 26iYruisOEBNvXukQ?l9^?/4pIAtx'3xO#WGR!@\=0vO_A%3@cR)wRC51
     P21C6jf  s2022 11 26rP+yd)(A;PMpJ/pAsmpYhw^q!.Re,J;7#%u,Fj\N``]V(1#xjlO(C51
     P21C6jf 3C2022 11 26HF]V5Aa_]xMH==^k#E(4M97%))UeQUHbV]]=vto97wa.:yrE'`LAT14
     P21C6jf 3C2022 11 26wQ$[`Dfl(L*fC:8s+559*58VZt`;m7s(x=IndQ@nqcNfUHqE]1)rT14
     P21C6jf 3C2022 11 26I_,wUl8]f+5].)G_#o1@xwvFnu]Y$/]=;ZLaMND93ZPA=x[uGF;ET14
     P21C6jf  S2022 11 26wkEEf\%Dkb;`BgGopFb]Z9%Qk:Ll:hl7376TN;x?WnT['#+'@iaYC51
     P21C6jf  s2022 11 26Hm$b?JVaGu.]O\S'!du[1=vD_`O-SSILW%4tLc(d8d=s?'IU4rv*C51
     P21C6jf  S2022 11 26p8jVAwcNG6+J%-3aq%KhREI!I5Ly@B7dy2ab`bxlCKP53!n8iG]8C51
     P21C6jf  s2022 11 26H78c;2,-v_?7!TLwwMldN`#q-:/0,%oAhUNnm/pMcpS`LQgro;YrC51
     P21C6jf  S2022 11 26f@gP*sU`BvNR$FFLVysfSZ9^G1S=D)?mYI@i0be8nj_;oWohDH7:C51
     P21C6jf  s2022 11 26JnAGNJ@A^i;MSWllL6+g,TxBBXE3sI6gj7o:W6RQYTbL4b+!o_K[C51
     P21C6jf  S2022 11 26v)dOCsk8h(@3Vv00hof7.@bjplJZHT4lM%^;'g6^jnPp%a^t'v)GC51
     P21C6jf  s2022 11 268M=*wRS+fyYF]N'Je%.ZU$_p=3wmx+CpjAHwhv_4Yh^,[=o;LMTCC51
     P21C6jf  S2022 11 26jht7^sw(Cg#k)3:CHMe1KSN@o!nIx8kr*PE'2hHi3frGZoI-4As`C51
     P21C6jf  s2022 11 26tGiNmTA8'KhL,ToTC(tp)T?R;Ts4:n6t7lI*Gjw(oeT!t#/q,)g5C51
     P21C6jf  S2022 11 277aB,;;A/cW)!I,_Jv\REaFPdUGJ8i:)P\6kQW;h]pkj/@FnfH/2xC51
     P21C6jf  s2022 11 27tByx4h8N.ce=u-!kxET:ec+rrF:E(B]Fa2TJlshgC2%hfs-A\9CUC51
     P21C6jf  S2022 11 27exUYRat^.[J`p6N]qIu9ioF0Q9.`$,]^pEX.-nXITN_(eVSh+F2FC51
     P21C6jf  s2022 11 27v,`*F6N3!aA.UTW/\qk'xj2DV3jSs*]?IN\%Icj4rxE'[L]C$'V^C51
     P21C6jf  S2022 11 27CmkQN5VqYYt_v?MI=sPxiW5g[qC^/@+\6(Kk_wJrq0H6]qTV,YvgC51
     P21C6jf  s2022 11 27nmd,*kV@(^ksChCo:SPk5^!kk!$ghs4,Yj6KF0S^VL\xIQ8#ICn9C51
     P21C6jf  S2022 11 27'Iexplanation*LK/mm\';KjfKUs01ElcIwVLGyt`ZCj-HS5\+-`C51
     P21C6jf  s2022 11 27KY;ECD5jm2sYymsYk@9qA/aW%lfqQ[tb;/,bv,\/_))rNG9hr4wYC51
     P21C6jf  S2022 11 27kW%cCw;$m5@.ELqu2-*q6gDe4]--K^@;FY8wt=j0]S/d$*v1hH!VC51
     P21C6jf  s2022 11 27l@jO'QfLp[rOtIJk94(FClJMi5;7kq)e2mGf3s6nEeBnigb#p.FbC51
     P21C6jf  S2022 11 273M+Cvmn%Ydk2W9_ma+3^yVK;ZAJZ^]bi_+f-yE@dkFPH95pTt]8NC51
     P21C6jf  s2022 11 279iM99bwPJAj/awb`=LQ=VT0F$@a1nTO^(hQj@(n;r#VIe@lH]HVGC51
     P21C6jf KC2022 11 30.52193 09 41 48.98 -20 32 44.2    ~BUD7       oNEOCP291
     P21C6jf KC2022 11 30.52641 09 41 49.36 -20 32 50.2    ~BUD7       oNEOCP291
     P21C6jf KC2022 11 30.53089 09 41 49.72 -20 32 56.1    ~BUD7       oNEOCP291

Station data:
(291) LPL/Spacewatch II  (N31.961669 W111.599905)  US/Arizona.  Observers J.
   V. Scotti, R. S. McMillan. 1.8-m f/2.7 reflector + CCD.
(691) Steward Observatory, Kitt Peak - Spacewatch  (N31.962174 W111.600327)
   US/Arizona.  Observer J. V. Scotti. 0.9-m f/3 reflector + CCD.
(C51) WISE. Measurers A. Mainzer, E. Wright, J. Bauer, T. Grav, J. Dailey, J.
   Masiero, R. Cutri, R. McMillan, R. Walker.
(F52) Pan-STARRS 2, Haleakala  (N20.707382 W156.255910)  US/Hawaii.
   Observers J. Bulger, T. Dukes, T. Lowe, A. Schultz, M. Willman. Measurers
   K. Chambers, S. Chastel, T. de Boer, L. Denneau, J. Fairlamb, H.
   Flewelling, M. Huber, C.-C. Lin, E. Magnier, Y. Ramanjooloo, R. Wainscoat,
   R. Weryk. 1.8-m Ritchey-Chrétien + CCD.
(J04) ESA Optical Ground Station, Tenerife  (N28.300922 W16.511830)  Canary
   Islands (Spain).  Observer D. Abreu. Measurers M. Micheli, D. Koschny, E.
   Schwab, M. Busch, A. Knöfel. 1.0-m f/4.4 reflector + CCD.
(T14) Mauna Kea-UH/Tholen NEO Follow-Up (CFHT)  (N19.825252 W155.468876)
   US/Hawaii. 3.6-m Canada-France-Hawaii Telescope.

Orbital elements:  P21C6jf
   Perihelion 2022 Dec 8.21459 +/- 0.667 TT =  5:09:00 (JD 2459921.71459)
Epoch 2022 Nov 30.0 TT = JDT 2459913.5   Earth MOID: 0.9843   AutoNEOCP
M 357.94551320 +/- 0.20             (J2000 ecliptic)
n   0.25010213 +/- 0.00644          Peri.  263.29809 +/- 0.42
a   2.49492662 +/- 0.0428           Node   219.41975 +/- 0.28
e   0.2842004 +/- 0.0102            Incl.   26.24419 +/- 0.052
P   3.94                   H 17.5   G  0.15   U  9.4
q 1.78586728 +/- 0.00533    Q 3.20398597 +/- 0.0803
From 33 observations 2022 Nov. 24-30; mean residual 0".52
Residuals in arcseconds: 
221124 F52  .05+  .08+    221126 691  .42+  .05+    221126 C51  .51+  1.2+    
221124 F52  .04+  .08+    221126 691  .41-  .06+    221126 C51  .41+  1.5+    
221124 F52  .09+  .07-    221126 691  .02+  .19+    221127 C51  .67+  .66+    
221124 F52  .02-  .04-    221126 C51  .86+  .00     221127 C51  .59+  .79+    
221125 C51  .18+  .08+    221126 C51  .19+  .15+    221127 C51  .58+  .08-    
221126 C51  .44+  .92+    221126 T14  .02-  .00     221127 C51  .26+  .12+    
221126 C51  .74-  .23+    221126 T14  .01-  .02-    221127 C51  .71+  1.0-    
221126 C51  1.0-  .08-    221126 T14  .00   .03-    221127 C51  1.0+  1.4+    
221126 J04  .08-  .01-    221126 C51  .19+  .42-    221130 291  .33-  .12-    
221126 J04  .01-  .06+    221126 C51  1.0+  .17+    221130 291  .08+  .04-    
221126 J04  .01+  .02-    221126 C51  .21+  1.1+    221130 291  .22+  .15+    

Ephemerides (geocentric):
Date (UTC) HH   RA             Dec           delta  r     elong  mag " sig PA
---- --------  ------------   ------------  ------ ------ -----  --- --------
2022 11 30 20  09 42 14.017   -20 39 42.12  1.4555 1.7866  92.0 21.0 .115  54
2022 11 30 21  09 42 17.356   -20 40 38.67  1.4552 1.7866  92.0 21.0 .120  53
2022 11 30 22  09 42 20.692   -20 41 35.21  1.4549 1.7866  92.0 21.0 .125  53
2022 11 30 23  09 42 24.027   -20 42 31.74  1.4546 1.7866  92.1 21.0 .130  53
2022 12 01 00  09 42 27.360   -20 43 28.27  1.4543 1.7866  92.1 21.0 .135  53
2022 12 01 01  09 42 30.690   -20 44 24.79  1.4540 1.7865  92.1 21.0 .140  52
2022 12 01 02  09 42 34.019   -20 45 21.30  1.4538 1.7865  92.1 21.0 .145  52
2022 12 01 03  09 42 37.346   -20 46 17.81  1.4535 1.7865  92.1 21.0 .150  52
2022 12 01 04  09 42 40.670   -20 47 14.31  1.4532 1.7865  92.1 21.0 .156  52
2022 12 01 05  09 42 43.993   -20 48 10.80  1.4529 1.7865  92.2 21.0 .161  52
2022 12 01 06  09 42 47.314   -20 49 07.29  1.4526 1.7865  92.2 21.0 .167  52
2022 12 01 07  09 42 50.633   -20 50 03.77  1.4523 1.7865  92.2 21.0 .172  51
2022 12 01 08  09 42 53.949   -20 51 00.24  1.4520 1.7865  92.2 21.0 .178  51
2022 12 01 09  09 42 57.264   -20 51 56.71  1.4517 1.7865  92.2 20.9 .184  51
2022 12 01 10  09 43 00.577   -20 52 53.17  1.4514 1.7865  92.3 20.9 .189  51
2022 12 01 11  09 43 03.887   -20 53 49.62  1.4511 1.7865  92.3 20.9 .195  51
2022 12 01 12  09 43 07.196   -20 54 46.06  1.4508 1.7865  92.3 20.9 .201  51
2022 12 01 13  09 43 10.503   -20 55 42.50  1.4505 1.7865  92.3 20.9 .207  51
2022 12 01 14  09 43 13.807   -20 56 38.93  1.4502 1.7864  92.3 20.9 .213  51
2022 12 01 15  09 43 17.110   -20 57 35.36  1.4499 1.7864  92.3 20.9 .220  51
2022 12 01 16  09 43 20.411   -20 58 31.78  1.4496 1.7864  92.4 20.9 .226  50
2022 12 01 17  09 43 23.709   -20 59 28.19  1.4493 1.7864  92.4 20.9 .232  50
2022 12 01 18  09 43 27.006   -21 00 24.59  1.4490 1.7864  92.4 20.9 .238  50
2022 12 01 19  09 43 30.301   -21 01 20.99  1.4487 1.7864  92.4 20.9 .245  50
2022 12 01 20  09 43 33.593   -21 02 17.38  1.4484 1.7864  92.4 20.9 .251  50
2022 12 01 21  09 43 36.884   -21 03 13.76  1.4481 1.7864  92.4 20.9 .258  50
2022 12 01 22  09 43 40.173   -21 04 10.13  1.4478 1.7864  92.5 20.9 .265  50
2022 12 01 23  09 43 43.459   -21 05 06.50  1.4475 1.7864  92.5 20.9 .271  50
2022 12 02 00  09 43 46.744   -21 06 02.86  1.4472 1.7864  92.5 20.9 .278  50
2022 12 02 01  09 43 50.026   -21 06 59.22  1.4470 1.7864  92.5 20.9 .285  50
2022 12 02 02  09 43 53.307   -21 07 55.56  1.4467 1.7864  92.5 20.9 .292  50
2022 12 02 03  09 43 56.585   -21 08 51.90  1.4464 1.7864  92.5 20.9 .299  50
2022 12 02 04  09 43 59.862   -21 09 48.23  1.4461 1.7864  92.6 20.9 .306  50
2022 12 02 05  09 44 03.136   -21 10 44.56  1.4458 1.7863  92.6 20.9 .313  50
2022 12 02 06  09 44 06.409   -21 11 40.87  1.4455 1.7863  92.6 20.9 .321  49
2022 12 02 07  09 44 09.679   -21 12 37.18  1.4452 1.7863  92.6 20.9 .328  49
2022 12 02 08  09 44 12.947   -21 13 33.49  1.4449 1.7863  92.6 20.9 .336  49
2022 12 02 09  09 44 16.214   -21 14 29.78  1.4446 1.7863  92.7 20.9 .343  49
2022 12 02 10  09 44 19.478   -21 15 26.07  1.4443 1.7863  92.7 20.9 .351  49
2022 12 02 11  09 44 22.740   -21 16 22.35  1.4440 1.7863  92.7 20.9 .358  49
2022 12 02 12  09 44 26.000   -21 17 18.62  1.4437 1.7863  92.7 20.9 .366  49
2022 12 02 13  09 44 29.259   -21 18 14.89  1.4434 1.7863  92.7 20.9 .374  49
2022 12 02 14  09 44 32.515   -21 19 11.14  1.4431 1.7863  92.7 20.9 .382  49
2022 12 02 15  09 44 35.769   -21 20 07.39  1.4428 1.7863  92.8 20.9 .389  49
2022 12 02 16  09 44 39.021   -21 21 03.64  1.4425 1.7863  92.8 20.9 .397  49
2022 12 02 17  09 44 42.271   -21 21 59.87  1.4422 1.7863  92.8 20.9 .406  49
2022 12 02 18  09 44 45.519   -21 22 56.10  1.4420 1.7863  92.8 20.9 .414  49
2022 12 02 19  09 44 48.765   -21 23 52.32  1.4417 1.7863  92.8 20.9 .422  49